KLSEKBCK

Guest
Details From KLSE - LA CROSSE MUNI
To KBCK - Black River Falls Area
Flight Number -
Tags generated
Created
Modified
Stats Distance 28 nm / 52 km
Max Altitude 900 ft / 274 m
Waypoints 3
Social Downloads 1
Likes 0
Share VATSIM

Download

Looking for another format? Having issues loading an existing format? Contact us
Advertisement - Login to hide

Notes

Basic altitude profile: - Ascent Rate: 2500ft/min - Ascent Speed: 250kts - Cruise Altitude: 35000ft - Cruise Speed: 420kts - Descent Rate: 1500ft/min - Descent Speed: 250kts Options: - Use NATs: yes - Use PACOTS: yes - Use low airways: yes - Use high airways: yes

Route

KLSE SAUCY KBCK

ID Type Via Altitude Latitude Longitude Leg Dist Tot Dist Heading (true) Name
O KLSE APT - 0 ft / 0 m 43.87882˚ -91.25621˚ - 0 nm - LA CROSSE MUNI
SAUCY FIX - 900 ft / 274 m 44.18831˚ -90.91736˚ 23 nm 23 nm 38° / 38° -
O KBCK APT - 0 ft / 0 m 44.25074˚ -90.85528˚ 4 nm 28 nm 35° / 35° Black River Falls Area

Altitude Profile

Advertisement - Login to hide

KLSE

Details ICAO KLSE (LSE)
Name LA CROSSE MUNI
Region United States
Timezone America/Chicago (UTC-5.0)
Stats Elevation 653 ft / 199 m (AMSL)
Location 43.878815° -91.256206°
Runways 3
Magnetic Variation 1.334° W

METAR

KLSE 231253Z 00000KT 9SM FEW002 SCT060 BKN080 14/13 A3017 RMK AO2 SLP214 T01440133

Decode

TAF

TAF AMD KLSE 231231Z 2313/2412 13005KT P6SM BCFG SCT002 BKN080 FM231400 14006KT P6SM VCSH SCT008 BKN080 FM231800 17007KT P6SM BKN100 FM240200 15004KT P6SM SCT150

Decode

Departure Runways

ID Width Length Bearing (true) Bearing (mag) Surface Threshold Offset Overrun Length
03 150 ft / 46 m 5,204 ft / 1,586 m 36.00° 37.33° Asphalt 0 ft / 0 m 0 ft / 0 m
13 150 ft / 46 m 6,056 ft / 1,846 m 134.61° 135.94° Asphalt 0 ft / 0 m 0 ft / 0 m
18 150 ft / 46 m 8,750 ft / 2,667 m 179.43° 180.76° Concrete 0 ft / 0 m 0 ft / 0 m
21 150 ft / 46 m 5,204 ft / 1,586 m 216.01° 217.34° Asphalt 0 ft / 0 m 0 ft / 0 m
31 150 ft / 46 m 6,056 ft / 1,846 m 314.62° 315.95° Asphalt 732 ft / 223 m 0 ft / 0 m
36 150 ft / 46 m 8,750 ft / 2,667 m 359.43° 0.76° Concrete 1,132 ft / 345 m 0 ft / 0 m

KBCK

Details ICAO KBCK
Name Black River Falls Area
Region United States
Timezone America/Chicago (UTC-5.0)
Stats Elevation 836 ft / 255 m (AMSL)
Location 44.250739° -90.855282°
Runways 1
Magnetic Variation 1.711° W

METAR

KBCK 231315Z AUTO 00000KT 7SM OVC002 12/12 A3018 RMK AO2 T01220122

Decode

TAF

Not found

Destination Runways

ID Width Length Bearing (true) Bearing (mag) Surface Threshold Offset Overrun Length
08 75 ft / 23 m 4,591 ft / 1,399 m 80.41° 82.12° Asphalt 0 ft / 0 m 0 ft / 0 m
26 75 ft / 23 m 4,591 ft / 1,399 m 260.43° 262.14° Asphalt 0 ft / 0 m 0 ft / 0 m

Popular Alternatives